This demonstration page uses our WeatherBlox Daily Observations layout. Learn more.

Left ArrowRight Arrow

Hourly Observations for September 23, 2022

Temp ( °F °C ) Dew Point ( °F °C ) Humidity (%) Winds ( mph kmh ) Pressure ( in mb ) Visibility ( mi km ) Precip ( " mm )
12:55 am 00:55 Mostly Cloudy with Light Showers 56 13.3 49 9.5 78 78 SSE 7 11 30.18 1022 10 16 0.01 0.13
1:55 am 01:55 Cloudy with Light Rain 56 13.3 49 9.5 78 78 SE 3 6 30.18 1022 10 16 0.01 0.13
2:55 am 02:55 Mostly Cloudy with Light Showers 56 13.2 49 9.6 79 79 Calm 30.18 1022 10 16 0.01 0.13
3:55 am 03:55 Mostly Cloudy 56 13.5 49 9.2 75 75 S 6 9 30.16 1021 10 16 0.00 0.00
4:55 am 04:55 Cloudy with Showers 55 12.7 49 9.5 81 81 S 5 7 30.15 1021 7 11 0.02 0.51
5:55 am 05:55 Mostly Cloudy 55 12.7 48 9.1 79 79 S 5 7 30.16 1021 10 16 0.00 0.00
6:55 am 06:55 Cloudy with Light Showers 54 12.1 50 10 87 87 E 6 9 30.14 1021 10 16 0.04 1.02
7:43 am 07:43 Cloudy 54 12 50 10 88 88 ESE 10 17 30.12 1020 10 16 0.00 0.00
7:55 am 07:55 Cloudy 54 12 49 9.4 84 84 ESE 7 11 30.12 1020 10 16 0.03 0.76
8:55 am 08:55 Cloudy 55 12.7 50 9.9 83 83 SE 12 19 30.10 1019 10 16 0.00 0.00
9:55 am 09:55 Cloudy 56 13.5 49 9.7 78 78 SE 13 20 30.08 1019 10 16 0.00 0.00
10:55 am 10:55 Cloudy 59 14.8 50 10 73 73 S 14 22 30.08 1019 10 16 0.00 0.00
11:55 am 11:55 Mostly Cloudy 59 14.8 50 9.8 72 72 S 21 33 30.05 1018 10 16 0.00 0.00
12:55 pm 12:55 Mostly Cloudy 57 14 50 10 77 77 S 14 22 30.05 1018 10 16 0.00 0.00
1:55 pm 13:55 Cloudy 57 13.8 50 10.2 79 79 SSE 12 19 30.02 1017 10 16 0.00 0.00
2:55 pm 14:55 Cloudy 58 14.3 52 10.9 80 80 SSE 17 28 29.97 1015 10 16 0.00 0.00
3:55 pm 15:55 Cloudy 58 14.4 52 11 80 80 S 10 17 29.97 1015 10 16 0.00 0.00
4:55 pm 16:55 Cloudy 58 14.2 52 11.2 82 82 SSE 10 17 29.96 1015 10 16 0.00 0.00
5:55 pm 17:55 Cloudy with Mist and Fog 58 14.4 53 11.7 84 84 S 7 11 29.95 1014 6 10 0.00 0.00
6:55 pm 18:55 Cloudy with Mist and Fog 58 14.6 55 12.5 87 87 SE 9 15 29.95 1014 6 10 0.00 0.00
7:55 pm 19:55 Cloudy with Mist and Fog 58 14.5 55 12.5 88 88 S 9 15 29.96 1015 5 8 0.00 0.00
8:55 pm 20:55 Cloudy with Mist and Fog 58 14.4 54 12.4 88 88 SSE 10 17 29.97 1015 5 8 0.00 0.00
9:55 pm 21:55 Cloudy with Mist and Fog 58 14.2 55 12.6 90 90 S 7 11 29.99 1016 4 6 0.00 0.00
10:55 pm 22:55 Mostly Cloudy 58 14.3 55 13 92 92 S 8 13 29.97 1015 7 11 0.00 0.00
11:55 pm 23:55 Cloudy 58 14.4 55 12.9 91 91 S 7 11 29.96 1015 9 14 0.00 0.00

Powered by AerisWeather